Location: Newark
(51.2656°N, 3.9089°E)
Time: 17:38:39
(UTC+00:00)

Envisat - Visible Passes

Search period start: 20 October 2019 00:00
Search period end: 30 October 2019 00:00
Orbit: 764 x 766 km, 98.1° (Epoch: 20 October)

Date Brightness Start Highest point End Pass type
(mag) Time Alt. Az. Time Alt. Az. Time Alt. Az.
20 Oct 3.0 17:32:54 10° SSE 17:38:00 85° ENE 17:43:07 10° NNW visible
20 Oct 5.9 19:14:38 10° SW 19:17:43 16° W 19:20:48 10° NW visible
21 Oct 6.0 05:37:14 10° NE 05:41:02 21° E 05:44:47 10° SE visible
21 Oct 4.9 18:36:03 10° SSW 18:40:31 31° W 18:45:02 10° NNW visible
22 Oct 3.6 17:58:31 10° S 18:03:32 60° W 18:08:35 10° NNW visible
23 Oct 3.0 17:21:41 10° SSE 17:26:44 71° ENE 17:31:49 10° N visible
23 Oct 5.7 19:02:40 10° SW 19:06:18 19° W 19:09:57 10° NW visible
24 Oct 6.1 05:26:21 10° NE 05:29:37 17° E 05:32:52 10° SE visible
24 Oct 4.5 18:24:28 10° SSW 18:29:10 37° W 18:33:54 10° NNW visible
25 Oct 3.2 17:47:10 10° S 17:52:14 74° WSW 17:57:21 10° NNW visible
25 Oct 6.2 19:30:20 10° WSW 19:32:11 12° W 19:34:03 10° WNW visible
26 Oct 5.6 05:51:07 10° NE 05:55:26 27° E 05:59:42 10° SSE visible
26 Oct 3.1 17:10:32 10° SSE 17:15:30 58° ENE 17:20:31 10° N visible
26 Oct 5.4 18:50:51 10° SW 18:54:54 24° W 18:58:59 10° NW visible
27 Oct 6.2 05:15:38 10° NE 05:18:11 14° E 05:20:44 10° ESE visible
27 Oct 4.1 18:12:58 10° S 18:17:50 46° W 18:22:44 10° NNW visible
28 Oct 3.0 17:35:52 10° SSE 17:40:58 89° WSW 17:46:05 10° NNW visible
28 Oct 6.0 19:17:56 10° WSW 19:20:44 15° W 19:23:34 10° NW visible
29 Oct 5.9 05:40:05 10° NE 05:44:02 22° E 05:47:58 10° SE visible
29 Oct 3.2 16:59:25 10° SE 17:04:16 48° ENE 17:09:10 10° N visible
29 Oct 5.0 18:39:09 10° SSW 18:43:31 29° W 18:47:56 10° NNW visible
